sat.trackr.live / text

‹ back to catalog

STARLINK-31474

NORAD 59304 · 2024-056J

PAYLOAD ACTIVE UNKNOWN

§ Identity

Operator
Country
US
Launch date
2024-03-24
Launch site
AFETR
Launch vehicle
Mass (kg)
RCS (m²)

Purposes: comms

External: N2YO · Heavens-Above · Gunter

§ Orbital elements

Epoch: 2026-09-20T22:27:49.647456Z

Period
94.27 min
Inclination
43.0017°
Eccentricity
0.0000731
Mean motion
15.27574888 rev/d
Perigee alt
482.6 km
Apogee alt
483.6 km
Semi-major
6,861.2 km
B*
-2.0048e-5
RAAN
201.2305°
Arg perigee
276.2264°
Mean anomaly
83.8505°
Rev number
14,109

§ Raw data

STARLINK-314741 59304U 24056J   26263.93599129 -.00000813  00000+0 -20048-4 0  99952 59304  43.0017 201.2305 0000731 276.2264  83.8505 15.27574888141090

JSON: /api/v1/satellites/59304 · /tle

For live sub-satellite position, see the globe view (requires WebGL).

§ Visibility from observer

Set your observer location to see the next 7 days of passes ≥ 10°. The values pass through the URL so the page stays shareable.

No JS? Fill the form by hand. The geolocation button needs JavaScript.